Showing default

LEMUR 2 LANGER2SPACE, 63358

Orbit data source: Space-Track

LEMUR 2 LANGER2SPACE, 63358 is a payload satellite owned by OroraTech (US) in SSO that was launched on Wed, 26 Mar 2025 UTC via an ELECTRON launch vehicle from the Rocket Lab Launch Complex (RLLC). Payload-class satellites include a variety of spacecraft equipped with specific instruments for various scientific and technological missions. These include communications satellites like Starlink; space stations such as the ISS; scientific satellites like the Hubble; Earth observation satellites from companies like Planet Labs, Umbra, and HawkEye 360; GPS; miniature CubeSats for education and research; and military/defense satellites.

Loading next visibility...
Identifier
63358, 2025-061H
Orbit
SSO
Country
Flag of USUS
Related business
Manufacturer
Spire/Glasgow
Mission
Operational Commercial Imaging
Bus & Motor
CUBESAT 8U, Unknown motor
Mass
~15 kg wet, ~15 kg dry
Launch date (UTC)
2025-03-26 (1 year ago)
Launch vehicle
ELECTRON
Launch site
Rocket Lab Launch Complex (RLLC)
Object type
Payload
Rocket body
Debris
Shape & HBR
Box + 2 Pan, 0.2 m
Radar Cross Section
0.070 m², Medium (>0.1 m² and < 1m²)

Expand to show TLE details & history
Last TLE update: 17 hours ago

TLE from 17 hours ago
0 LEMUR 2 LANGER2SPACE
1 63358U 25061H   26264.86890535  .00002721  00000-0  14948-3 0  9994
2 63358  97.5731 240.0649 0014771 285.9532  74.0073 15.14892716 82250
Epoch: 2026-09-21T20:51Z
TLE epoch observation values (Epoch: 2026-09-21T20:51:13.422Z)
Latitude
0.00007°
Longitude
-73.48359°
Altitude
521.588 km
Speed
7.604 km/s
True Right ascension
16h 00m 15s
True Declination
0° 00' 00"
Sunlit
Object was in daylight at epoch
Visualization orbit readout
Latitude
Unknown
Longitude
Unknown
Altitude
Unknown
Speed
Unknown
Apparent Right ascension
Unknown
Apparent Declination
Unknown
Sunlit
N/A
Visualization observer readout
Local Sidereal Time
06:48:54
Azimuth
Unknown
Elevation
Unknown
Doppler factor
Unknown
Orbital elements
Apogee altitude
528.471 km
Perigee altitude
508.097 km
Semi-major axis
6,896.421 km
Eccentricity
0.00148
Inclination
97.5731°
RAAN
240.0649°
Arg. of periapsis
285.9532°
True anomaly
74.17009°
Mean anomaly
74.0073°
Eccentric anomaly
74.08869°
Mean motion
3.78972 °/min
Orbital period
94.99 mins
BSTAR
0.00014948
Loading maneuver chart data...
Computing Atmospheric mass density...
Loading historical data...
Loading historical data...
Loading historical data...
Loading historical data...
Loading historical data...
Loading historical data...
Loading historical data...

Documentation

Showing up to 5 results
|